Voltar ao catálogo

GLOBALSTAR M025

AtivoComunicaçõesMEO
NORAD 25770·PAYLOAD·🇺🇸 United States

Lançado Jun 10, 1999 de Cape Canaveral Space Force Station

Loading…

Próximas Passagens (próximas 24 horas)

TLE

AtualizadoSource: Space-Track

Época: Sep 13, 2026, 19:10 UTC

1 25770U 99031A   26256.79882638 -.00000053  00000-0  45240-3 0  9992
2 25770  51.9798 188.4362 0001476 158.7091 213.1939 11.22567160532653

Acompanhe GLOBALSTAR M025 em tempo real com AllMySat

Download on the App Store